Weather History for KGWO - August, 2014

Change the Weather History Date:

Monday, August 11, 2014

  Actual Average Record
Temperature  
Mean Temperature 76 °F 81 °F  
Max Temperature 82 °F 93 °F 103 °F (1954)
Min Temperature 70 °F 70 °F 60 °F (1969)
Degree Days  
Heating Degree Days 0 0  
Month to date heating degree days 0 0  
Since 1 June heating degree days 0 0  
Since 1 July heating degree days 0 0  
Cooling Degree Days 11 16  
Month to date cooling degree days 165 176  
Year to date cooling degree days 1255 1424  
Since 1 June cooling degree days 961 1094  
Growing Degree Days 26 (Base 50)    
Moisture  
Dew Point 73 °F    
Average Humidity 90    
Maximum Humidity 100    
Minimum Humidity 79    
Precipitation  
Precipitation 0.99 in 0.08 in 1.37 in (2011)
Month to date precipitation 2.25 0.98  
Year to date precipitation 39.99 32.22  
Sea Level Pressure  
Sea Level Pressure 29.98 in    
Wind  
Wind Speed 4 mph (SW)    
Max Wind Speed 9 mph    
Max Gust Speed 15 mph    
Visibility 7 miles    
Events Fog , Rain    
T = Trace of Precipitation, MM = Missing Value Source: NWS Daily Summary

Daily Weather History Graph

Daily Weather History Graph

Search for Another Location

Airport or City:

Trip Planner

Search our weather history database for the weather conditions in past years. The results will help you decide how hot, cold, wet, or windy it might be!

Date:

Astronomy

Aug. 11, 2014 Rise Set
Actual Time 6:19 AM CDT 7:50 PM CDT
Civil Twilight 5:53 AM CDT 8:17 PM CDT
Nautical Twilight 5:21 AM CDT 8:48 PM CDT
Astronomical Twilight 4:48 AM CDT 9:22 PM CDT
Moon 8:26 PM CDT (8/11) 7:19 AM CDT (8/11)
Length of Visible Light 14h 23m
Length of Day
13h 30m
Full, 99% of the Moon is Illuminated
Aug 11
Full
Aug 17
Last Quarter
Aug 25
New
Sep 2
First Quarter
Sep 8
Full

Hourly Weather History & Observations

Time (CDT) Temp. Heat Index Dew Point Humidity Pressure Visibility Wind Dir Wind Speed Gust Speed Precip Events Conditions
12:53 AM 71.1 °F - 70.0 °F 96% 29.98 in 8.0 mi Calm Calm - N/A   Clear
1:53 AM 71.1 °F - 70.0 °F 96% 29.96 in 9.0 mi SSW 3.5 mph - N/A   Clear
2:53 AM 71.1 °F - 70.0 °F 96% 29.96 in 8.0 mi South 3.5 mph - N/A   Clear
3:53 AM 71.1 °F - 70.0 °F 96% 29.96 in 6.0 mi SSW 3.5 mph - N/A   Clear
4:53 AM 71.1 °F - 70.0 °F 96% 29.97 in 5.0 mi SSW 3.5 mph - N/A   Clear
5:50 AM 71.6 °F - 71.6 °F 100% 29.98 in 6.0 mi SSW 5.8 mph - N/A   Scattered Clouds
5:53 AM 72.0 °F - 71.1 °F 97% 29.97 in 6.0 mi SSW 4.6 mph - N/A   Mostly Cloudy
6:53 AM 73.0 °F - 72.0 °F 96% 29.97 in 6.0 mi SSW 5.8 mph - N/A   Mostly Cloudy
7:18 AM 73.0 °F - 72.0 °F 96% 29.99 in 7.0 mi SSW 5.8 mph - N/A   Scattered Clouds
7:46 AM 73.9 °F - 72.0 °F 93% 30.01 in 8.0 mi Calm Calm - N/A   Overcast
7:53 AM 75.0 °F - 73.0 °F 94% 30.01 in 8.0 mi Calm Calm - N/A   Overcast
8:08 AM 75.0 °F - 73.0 °F 94% 30.01 in 1.8 mi SW 4.6 mph - 0.03 in Rain Heavy Rain
8:11 AM 75.0 °F - 73.0 °F 94% 30.01 in 0.8 mi SW 5.8 mph - 0.11 in Rain Heavy Rain
8:21 AM 75.0 °F - 73.0 °F 94% 30.01 in 0.5 mi South 6.9 mph - 0.36 in Fog , Rain Heavy Rain
8:40 AM 75.0 °F - 73.0 °F 94% 30.02 in 2.0 mi NNE 6.9 mph - 0.61 in Rain Light Rain
8:48 AM 75.2 °F - 73.4 °F 94% 30.03 in 7.0 mi North 8.1 mph - 0.61 in Rain Light Rain
8:53 AM 73.9 °F - 73.0 °F 97% 30.02 in 7.0 mi Calm Calm - 0.61 in Rain Light Rain
9:04 AM 73.9 °F - 72.0 °F 93% 30.04 in 1.5 mi NW 3.5 mph - 0.06 in Rain Heavy Rain
9:11 AM 73.9 °F - 73.0 °F 97% 30.04 in 0.5 mi Calm Calm - 0.17 in Fog , Rain Heavy Rain
9:26 AM 73.9 °F - 73.0 °F 97% 30.02 in 2.5 mi South 5.8 mph - 0.23 in Rain Rain
9:34 AM 73.9 °F - 72.0 °F 93% 30.01 in 3.0 mi South 6.9 mph - 0.26 in Rain Rain
9:53 AM 73.9 °F - 72.0 °F 93% 30.02 in 4.0 mi Calm Calm - 0.27 in Rain Rain
10:25 AM 75.0 °F - 73.9 °F 96% 30.04 in 10.0 mi SW 4.6 mph - 0.01 in   Mostly Cloudy
10:51 AM 75.2 °F - 71.6 °F 89% 30.04 in 10.0 mi WSW 6.9 mph - 0.01 in   Mostly Cloudy
10:53 AM 75.9 °F - 72.0 °F 87% 30.03 in 10.0 mi Variable 5.8 mph - 0.01 in Rain Light Rain
11:03 AM 75.9 °F - 72.0 °F 87% 30.04 in 7.0 mi SW 8.1 mph - 0.01 in Rain Light Rain
11:53 AM 75.0 °F - 73.0 °F 94% 30.04 in 5.0 mi Calm Calm - 0.07 in Rain Light Rain
12:53 PM 77.0 °F - 75.0 °F 94% 29.96 in 10.0 mi South 8.1 mph - 0.03 in Rain Light Rain
1:53 PM 79.0 °F - 75.0 °F 88% 29.94 in 10.0 mi SW 3.5 mph - 0.00 in   Clear
2:44 PM 81.0 °F 86.7 °F 75.0 °F 82% 29.93 in 10.0 mi WSW 5.8 mph - N/A   Mostly Cloudy
2:53 PM 80.1 °F 84.5 °F 73.9 °F 81% 29.93 in 10.0 mi WSW 5.8 mph - N/A   Mostly Cloudy
3:31 PM 81.0 °F 86.7 °F 75.0 °F 82% 29.93 in 10.0 mi WSW 3.5 mph - N/A   Mostly Cloudy
3:53 PM 82.0 °F 88.6 °F 75.0 °F 79% 29.94 in 10.0 mi WSW 4.6 mph - N/A   Overcast
4:13 PM 82.0 °F 88.6 °F 75.0 °F 79% 29.94 in 10.0 mi SW 8.1 mph - N/A   Scattered Clouds
4:53 PM 82.0 °F 88.6 °F 75.0 °F 79% 29.93 in 10.0 mi SW 5.8 mph - N/A   Partly Cloudy
5:53 PM 81.0 °F 86.7 °F 75.0 °F 82% 29.93 in 10.0 mi SW 4.6 mph - N/A   Partly Cloudy
6:53 PM 80.1 °F 85.4 °F 75.9 °F 87% 29.91 in 10.0 mi SSW 3.5 mph - N/A   Clear
7:08 PM 80.1 °F 85.1 °F 75.0 °F 85% 29.91 in 10.0 mi SW 4.6 mph - 0.00 in   Mostly Cloudy
7:30 PM 79.0 °F - 75.0 °F 88% 29.92 in 10.0 mi SSW 4.6 mph - 0.00 in   Scattered Clouds
7:53 PM 78.1 °F - 73.9 °F 87% 29.92 in 10.0 mi SW 4.6 mph - 0.00 in   Clear
8:53 PM 77.0 °F - 73.9 °F 90% 29.94 in 10.0 mi Calm Calm - N/A   Mostly Cloudy
9:06 PM 77.0 °F - 75.0 °F 94% 29.95 in 10.0 mi SSW 4.6 mph - N/A   Mostly Cloudy
9:14 PM 77.0 °F - 75.0 °F 94% 29.96 in 10.0 mi SSW 3.5 mph - N/A   Mostly Cloudy
9:53 PM 75.9 °F - 73.9 °F 94% 29.94 in 7.0 mi SSW 4.6 mph - N/A   Clear
10:27 PM 75.9 °F - 73.9 °F 94% 29.95 in 5.0 mi Calm Calm - N/A   Scattered Clouds
10:44 PM 75.9 °F - 73.9 °F 94% 29.94 in 5.0 mi Calm Calm - N/A   Mostly Cloudy
10:53 PM 75.0 °F - 73.9 °F 96% 29.95 in 4.0 mi Calm Calm - N/A   Mostly Cloudy
11:53 PM 75.9 °F - 73.9 °F 94% 29.96 in 5.0 mi SSW 5.8 mph - N/A   Overcast